Weather History for KDYT - November, 2011

Change the Weather History Date:

Wednesday, November 9, 2011

  Actual Average Record
Temperature  
Mean Temperature 39 °F -  
Max Temperature 46 °F 39 °F 66 °F (1999)
Min Temperature 32 °F 26 °F 5 °F (1959)
Degree Days  
Heating Degree Days 26    
Moisture  
Dew Point 30 °F    
Average Humidity 72    
Maximum Humidity 87    
Minimum Humidity 43    
Precipitation  
Precipitation 0.00 in - - ()
Sea Level Pressure  
Sea Level Pressure 30.02 in    
Wind  
Wind Speed 5 mph (NNW)    
Max Wind Speed 26 mph    
Max Gust Speed 34 mph    
Visibility 10 miles    
Events      
Averages and records for this station are not official NWS values.
T = Trace of Precipitation, MM = Missing Value Source: NWS Daily Summary

Daily Weather History Graph

Daily Weather History Graph

Search for Another Location

Airport or City:

Trip Planner

Search our weather history database for the weather conditions in past years. The results will help you decide how hot, cold, wet, or windy it might be!

Date:

Astronomy

Nov. 09, 2011 Rise Set
Actual Time 7:01 AM CST 4:41 PM CST
Civil Twilight 6:29 AM CST 5:14 PM CST
Nautical Twilight 5:52 AM CST 5:50 PM CST
Astronomical Twilight 5:17 AM CST 6:25 PM CST
Moon 3:52 PM CST (11/9) 5:57 AM CST (11/9)
Length of Visible Light 10h 44m
Length of Day
9h 40m
Waxing Gibbous, 99% of the Moon is Illuminated
Nov 9
Waxing Gibbous
Nov 10
Full
Nov 18
Last Quarter
Nov 25
New
Dec 2
First Quarter

Hourly Weather History & Observations

Time (CST) Temp. Windchill Dew Point Humidity Pressure Visibility Wind Dir Wind Speed Gust Speed Precip Events Conditions
12:14 AM 39.2 °F 33.6 °F 33.8 °F 81% 30.18 in 10.0 mi NNE 8.1 mph - N/A   Clear
12:33 AM 39.2 °F 34.2 °F 33.8 °F 81% 30.18 in 10.0 mi NE 6.9 mph - N/A   Clear
12:54 AM 33.8 °F - 30.2 °F 87% 30.18 in 10.0 mi Calm Calm - N/A   Clear
1:13 AM 33.8 °F - 28.4 °F 81% 30.18 in 10.0 mi Calm Calm - N/A   Clear
1:33 AM 33.8 °F - 30.2 °F 87% 30.17 in 10.0 mi Calm Calm - N/A   Clear
1:54 AM 33.8 °F - 28.4 °F 81% 30.17 in 10.0 mi Calm Calm - N/A   Clear
2:14 AM 33.8 °F - 28.4 °F 81% 30.16 in 10.0 mi Calm Calm - N/A   Clear
2:33 AM 33.8 °F - 28.4 °F 81% 30.16 in 10.0 mi Calm Calm - N/A   Clear
2:54 AM 33.8 °F - 28.4 °F 81% 30.15 in 10.0 mi Calm Calm - N/A   Clear
3:13 AM 33.8 °F - 30.2 °F 87% 30.14 in 10.0 mi Calm Calm - N/A   Clear
3:33 AM 33.8 °F - 30.2 °F 87% 30.12 in 10.0 mi Calm Calm - N/A   Clear
3:54 AM 37.4 °F 31.4 °F 33.8 °F 87% 30.11 in 10.0 mi North 8.1 mph - N/A   Clear
4:13 AM 39.2 °F 32.5 °F 33.8 °F 81% 30.10 in 10.0 mi NNE 10.4 mph - N/A   Clear
4:33 AM 39.2 °F 33.0 °F 33.8 °F 81% 30.10 in 10.0 mi NNE 9.2 mph - N/A   Clear
4:54 AM 39.2 °F 33.6 °F 35.6 °F 87% 30.10 in 10.0 mi NNE 8.1 mph - N/A   Clear
5:13 AM 39.2 °F 37.0 °F 33.8 °F 81% 30.10 in 10.0 mi ENE 3.5 mph - N/A   Clear
5:33 AM 33.8 °F 29.6 °F 28.4 °F 81% 30.10 in 10.0 mi South 4.6 mph - N/A   Clear
6:13 AM 32.0 °F - 28.4 °F 87% 30.08 in 10.0 mi Calm Calm - N/A   Clear
6:34 AM 33.8 °F - 28.4 °F 81% 30.08 in 10.0 mi Calm Calm - N/A   Clear
6:53 AM 33.8 °F - 30.2 °F 87% 30.09 in 10.0 mi Calm Calm - N/A   Clear
7:14 AM 33.8 °F - 30.2 °F 87% 30.09 in 10.0 mi Calm Calm - N/A   Mostly Cloudy
7:34 AM 32.0 °F 28.7 °F 28.4 °F 87% 30.10 in 10.0 mi SSW 3.5 mph - N/A   Scattered Clouds
8:13 AM 32.0 °F - 28.4 °F 87% 30.08 in 10.0 mi Calm Calm - N/A   Scattered Clouds
8:33 AM 33.8 °F - 30.2 °F 87% 30.06 in 10.0 mi Calm Calm - N/A   Clear
8:54 AM 35.6 °F - 30.2 °F 81% 30.05 in 10.0 mi Calm Calm - N/A   Clear
9:13 AM 35.6 °F - 32.0 °F 87% 30.05 in 10.0 mi Calm Calm - N/A   Mostly Cloudy
9:34 AM 39.2 °F 33.6 °F 35.6 °F 87% 30.04 in 10.0 mi NE 8.1 mph - N/A   Scattered Clouds
9:54 AM 39.2 °F 35.0 °F 35.6 °F 87% 30.05 in 10.0 mi NE 5.8 mph - N/A   Clear
10:13 AM 41.0 °F 37.1 °F 35.6 °F 81% 30.04 in 10.0 mi NNE 5.8 mph - N/A   Clear
10:34 AM 41.0 °F 38.0 °F 35.6 °F 81% 30.03 in 10.0 mi NNE 4.6 mph - N/A   Clear
10:54 AM 41.0 °F 38.0 °F 35.6 °F 81% 30.02 in 10.0 mi North 4.6 mph - N/A   Scattered Clouds
11:13 AM 41.0 °F 39.0 °F 35.6 °F 81% 30.02 in 10.0 mi North 3.5 mph - N/A   Scattered Clouds
11:34 AM 41.0 °F 39.0 °F 35.6 °F 81% 30.00 in 10.0 mi NNW 3.5 mph - N/A   Scattered Clouds
11:54 AM 41.0 °F 39.0 °F 32.0 °F 70% 29.99 in 10.0 mi NNW 3.5 mph - N/A   Scattered Clouds
12:13 PM 42.8 °F - 30.2 °F 61% 29.98 in 10.0 mi Calm Calm - N/A   Clear
12:34 PM 42.8 °F - 30.2 °F 61% 29.97 in 10.0 mi Calm Calm - N/A   Clear
12:54 PM 42.8 °F - 30.2 °F 61% 29.95 in 10.0 mi Calm Calm - N/A   Clear
1:13 PM 42.8 °F - 30.2 °F 61% 29.94 in 10.0 mi Calm Calm - N/A   Clear
1:34 PM 42.8 °F - 30.2 °F 61% 29.93 in 10.0 mi Calm Calm - N/A   Clear
1:54 PM 42.8 °F 41.1 °F 30.2 °F 61% 29.93 in 10.0 mi ESE 3.5 mph - N/A   Clear
2:13 PM 44.6 °F - 30.2 °F 57% 29.92 in 10.0 mi Calm Calm - N/A   Clear
2:34 PM 42.8 °F 40.1 °F 30.2 °F 61% 29.91 in 10.0 mi NNW 4.6 mph - N/A   Clear
2:54 PM 46.4 °F 41.9 °F 26.6 °F 46% 29.91 in 10.0 mi NW 9.2 mph 16.1 mph N/A   Clear
3:13 PM 44.6 °F 40.2 °F 24.8 °F 46% 29.90 in 10.0 mi NW 8.1 mph - N/A   Clear
3:34 PM 44.6 °F 41.4 °F 24.8 °F 46% 29.89 in 10.0 mi NW 5.8 mph - N/A   Mostly Cloudy
3:54 PM 44.6 °F 39.7 °F 26.6 °F 49% 29.89 in 10.0 mi WNW 9.2 mph - N/A   Overcast
4:13 PM 46.4 °F 41.5 °F 24.8 °F 43% 29.88 in 10.0 mi NW 10.4 mph - N/A   Overcast
4:34 PM 44.6 °F 37.8 °F 26.6 °F 49% 29.88 in 10.0 mi WNW 15.0 mph 23.0 mph N/A   Overcast
4:54 PM 44.6 °F 36.4 °F 26.6 °F 49% 29.88 in 10.0 mi West 20.7 mph - N/A   Overcast
5:13 PM 44.6 °F 36.1 °F 26.6 °F 49% 29.88 in 10.0 mi WNW 21.9 mph 26.5 mph N/A   Scattered Clouds
5:34 PM 42.8 °F 34.0 °F 26.6 °F 53% 29.89 in 10.0 mi WNW 20.7 mph 27.6 mph N/A   Clear
5:54 PM 42.8 °F 34.5 °F 26.6 °F 53% 29.90 in 10.0 mi WNW 18.4 mph 27.6 mph N/A   Clear
6:13 PM 39.2 °F 28.0 °F 26.6 °F 61% 29.90 in 10.0 mi WNW 26.5 mph 34.5 mph N/A   Scattered Clouds
6:34 PM 39.2 °F 29.3 °F 26.6 °F 61% 29.91 in 10.0 mi WNW 20.7 mph 26.5 mph N/A   Overcast
6:53 PM 39.2 °F 29.6 °F 26.6 °F 61% 29.91 in 10.0 mi WNW 19.6 mph - N/A   Overcast
7:13 PM 37.4 °F 27.2 °F 24.8 °F 60% 29.91 in 10.0 mi NW 19.6 mph 32.2 mph N/A   Overcast
7:34 PM 37.4 °F 26.9 °F 26.6 °F 65% 29.90 in 10.0 mi NW 20.7 mph 26.5 mph N/A   Overcast
7:53 PM 37.4 °F 27.8 °F 26.6 °F 65% 29.90 in 10.0 mi WNW 17.3 mph 24.2 mph N/A   Overcast
8:13 PM 37.4 °F 28.9 °F 26.6 °F 65% 29.90 in 10.0 mi NW 13.8 mph 17.3 mph N/A   Overcast
8:34 PM 37.4 °F 29.3 °F 26.6 °F 65% 29.90 in 10.0 mi WNW 12.7 mph 17.3 mph N/A   Overcast
8:53 PM 37.4 °F 28.2 °F 26.6 °F 65% 29.89 in 10.0 mi West 16.1 mph 23.0 mph N/A   Overcast
9:13 PM 37.4 °F 27.2 °F 28.4 °F 70% 29.90 in 10.0 mi WNW 19.6 mph 23.0 mph N/A   Overcast
9:34 PM 37.4 °F 26.9 °F 28.4 °F 70% 29.89 in 10.0 mi WNW 20.7 mph 24.2 mph N/A   Overcast
9:53 PM 37.4 °F 28.5 °F 28.4 °F 70% 29.89 in 10.0 mi WNW 15.0 mph - N/A   Overcast
10:13 PM 37.4 °F 28.9 °F 28.4 °F 70% 29.88 in 10.0 mi West 13.8 mph 18.4 mph N/A   Overcast
10:33 PM 35.6 °F 26.6 °F 28.4 °F 75% 29.88 in 10.0 mi West 13.8 mph 20.7 mph N/A   Overcast
10:53 PM 35.6 °F 26.6 °F 28.4 °F 75% 29.87 in 10.0 mi West 13.8 mph 20.7 mph N/A   Overcast
11:14 PM 35.6 °F 26.6 °F 28.4 °F 75% 29.87 in 10.0 mi West 13.8 mph - N/A   Overcast
11:33 PM 35.6 °F 27.5 °F 28.4 °F 75% 29.87 in 10.0 mi West 11.5 mph 18.4 mph N/A   Overcast
11:53 PM 35.6 °F 28.6 °F 28.4 °F 75% 29.86 in 10.0 mi West 9.2 mph 17.3 mph N/A   Overcast